Location: Casaglia
(44.0333°N, 11.5167°E)
Time: 19:32:14
(UTC+00:00)

STARLINK-25 - Pass Details

Date: 07 June 2020
Orbit: 434 x 435 km, 53.0° (Epoch: 12 July)

Event Time Altitude Azimuth Distance (km) Brightness Sun altitude
Exits shadow 23:58:32 - 99° (E) 2,329 6.9 -22.4°
Enters shadow 00:56:02 -67° 233° (SW) 12,193 10.4 -19.1°
Maximum altitude 01:32:36 33° 136° (SE) 753 4.2 -15.9°
